Temp
8 8 7 7 7 7 7 7 7 7 7 7 7 7 7 7 7 6 6 6 6 7
8 7 7 7 7 7 7 7 7 6 6 6 6 6 6 6 6 6 6 6 6 6
7 7 7 6 6 6 6 6 6 5 5 5 5 5 5 5 5 6 6 6 6 7
7 6 6 6 6 6 6 5 4 4 4 4 4 4 5 5 5 5 5 6 6 6
6 6 6 5 5 5 4 3 3 3 3 3 4 4 4 4 4 5 5 5 5 6
5 5 5 4 4 4 4 3 3 3 3 3 3 3 4 4 4 4 5 5 6 6
5 4 4 4 4 4 3 3 3 3 3 2 3 3 3 3 4 4 5 5 6 6
4 4 4 4 3 4 3 3 3 2 2 3 3 2 3 3 3 4 4 4 4 4
4 3 3 3 3 4 3 3 2 2 2 2 2 2 3 3 3 3 3 3 3 3
3 3 3 3 3 3 4 3 2 2 2 2 2 2 2 3 3 3 3 3 3 4
3 2 3 3 2 2 2 2 2 2 1 1 1 1 2 2 2 2 2 3 3 3
3 3 3 2 2 2 2 2 2 1 1 1 1 1 1 2 2 2 1 2 2 2
3 3 2 2 2 2 1 1 1 1 1 0 0 0 1 1 2 2 1 1 1 1
3 3 2 2 2 1 1 1 2 2 1 1 0 0 0 2 2 2 1 1 1 1
Height
819 820 820 820 820 818 818 819 818 817 815 813 812 811 810 808 807 806 805 803 802 800
818 819 819 819 819 818 817 817 815 814 813 811 810 808 807 806 805 804 802 800 798 797
818 818 819 818 817 816 816 815 813 812 810 808 807 806 805 803 801 800 799 796 795 794
818 817 817 817 816 815 815 814 811 809 808 807 805 804 801 800 798 796 794 793 791 790
817 817 816 816 815 814 814 813 810 808 807 805 803 801 799 797 795 792 790 788 786 785
815 816 815 814 813 812 813 811 810 807 805 803 800 798 796 794 791 788 786 783 781 780
815 815 814 813 811 811 811 810 808 805 802 800 797 795 794 790 787 785 784 781 779 778
814 814 812 811 810 811 811 809 806 803 800 798 795 794 792 787 785 783 782 779 778 776
813 813 811 810 810 810 809 807 805 802 799 796 794 792 790 786 784 783 781 779 778 777
813 812 811 810 809 808 807 806 803 801 799 796 793 791 788 786 785 783 780 780 779 777
812 812 811 810 808 807 806 804 802 800 798 796 792 791 788 786 786 784 782 781 780 779
812 811 810 809 808 806 805 804 802 800 798 795 793 791 789 787 787 785 783 783 782 782
811 810 809 808 806 805 803 802 801 800 798 796 794 791 790 789 788 787 786 785 783 784
809 809 808 807 805 804 802 802 800 799 798 796 795 792 791 791 790 789 787 787 787 787
Wind_Speed
6 6 6 8 8 7 8 9 9 12 15 14 13 13 12 13 14 14 17 19 20 21
7 5 5 5 7 7 8 7 11 12 13 14 16 16 13 14 16 16 17 16 17 17
6 5 5 6 7 8 8 10 12 12 13 16 16 13 14 16 16 17 18 15 15 15
7 6 6 5 7 8 10 13 13 12 14 13 13 14 16 16 14 15 17 17 16 18
5 6 6 7 7 8 10 11 12 12 12 13 13 14 16 16 14 17 20 20 18 18
5 6 6 7 8 8 11 10 10 12 14 13 13 14 14 14 18 15 14 14 12 14
5 6 6 7 7 8 11 11 12 13 12 13 13 11 12 15 14 10 8 6 3 3
5 5 5 8 6 8 9 11 12 13 12 12 11 9 14 12 7 5 2 4 4 4
5 5 6 7 7 7 10 12 12 13 13 13 11 12 10 6 4 3 6 6 7 7
6 6 7 8 7 7 9 11 12 13 13 13 11 12 7 4 5 6 9 11 10 11
3 6 6 6 7 7 8 9 10 11 12 11 11 10 6 4 5 7 9 10 10 11
3 6 6 6 7 7 8 8 9 9 10 11 11 9 6 4 5 7 10 10 10 10
2 5 6 6 7 8 7 6 6 8 10 8 9 6 7 5 4 6 10 12 13 11
1 3 5 5 6 8 6 6 7 6 4 10 10 10 7 3 3 8 14 17 17 15
Wind_Direction
84 66 55 24 26 20 4 345 343 330 334 336 333 326 314 308 305 305 305 300 295 291
85 70 43 35 7 13 6 347 327 327 328 324 320 319 321 306 300 299 304 305 303 287
77 65 34 8 7 10 346 324 326 324 325 321 327 337 324 308 299 297 300 302 292 296
68 49 31 11 352 5 334 327 332 333 331 335 327 325 320 316 305 301 302 301 296 291
66 30 21 358 358 358 342 340 343 342 333 326 324 323 318 313 307 300 294 291 289 286
50 20 13 354 358 356 339 337 335 333 330 326 321 311 311 303 309 304 299 313 303 297
30 19 17 355 5 354 344 340 331 328 332 331 327 322 320 319 317 312 306 307 328 336
47 21 8 355 357 352 344 340 341 346 345 343 342 333 329 325 327 326 9 46 48 42
43 12 9 358 358 348 340 345 349 353 351 350 345 341 330 349 16 66 84 74 63 59
34 16 0 352 355 356 342 344 355 356 353 353 350 343 338 36 59 86 85 81 79 73
33 3 360 344 347 349 348 351 356 359 359 1 3 357 13 82 80 83 91 85 78 77
33 4 351 342 344 346 340 347 354 353 2 13 7 13 14 77 96 83 85 89 82 78
31 357 342 333 339 341 333 328 336 356 7 9 4 24 31 62 85 103 96 93 88 79
9 339 339 329 335 336 324 347 336 302 332 23 28 27 24 49 139 127 110 98 91 85